This demonstration page uses our WeatherBlox Daily Observations layout. Learn more.

Hourly Observations for August 7, 2017

Temp ( °F °C ) Dew Point ( °F °C ) Humidity (%) Winds ( mph kmh ) Pressure ( in mb ) Visibility ( mi km ) Precip ( " mm )
12:15 am 00:15 Cloudy 72 22 68 20 88 88 Calm 30.12 1020 10 16.09344 0 0
12:35 am 00:35 Cloudy 72 22 68 20 88 88 Calm 30.12 1020 10 16.09344 0 0
12:55 am 00:55 Cloudy 72 22 68 20 88 88 Calm 30.12 1020 10 16.09344 0 0
1:15 am 01:15 Cloudy 72 22 68 20 88 88 ESE 5 7 30.12 1020 10 16.09344 0 0
1:35 am 01:35 Cloudy 72 22 68 20 88 88 SSE 6 9 30.12 1020 10 16.09344 0 0
1:55 am 01:55 Cloudy 73 23 66 19 78 78 S 6 9 30.09 1019 10 16.09344 0 0
2:15 am 02:15 Cloudy 72 22 68 20 88 88 S 3 6 30.09 1019 10 16.09344 0 0
2:35 am 02:35 Cloudy with Light Rain 72 22 68 20 88 88 S 7 11 30.09 1019 10 16.09344 0 0
2:55 am 02:55 Cloudy with Light Rain 70 21 68 20 94 94 S 3 6 30.09 1019 10 16.09344 0 0
3:15 am 03:15 Cloudy with Light Rain 70 21 68 20 94 94 S 3 6 30.09 1019 10 16.09344 0.01 0.254
3:35 am 03:35 Cloudy with Light Rain 70 21 68 20 94 94 SSE 6 9 30.06 1018 10 16.09344 0.02 0.508
3:55 am 03:55 Cloudy 70 21 68 20 94 94 SSE 3 6 30.06 1018 10 16.09344 0.02 0.508
4:15 am 04:15 Cloudy 70 21 68 20 94 94 SSE 7 11 30.06 1018 10 16.09344 0 0
4:35 am 04:35 Cloudy 70 21 68 20 94 94 SSE 7 11 30.06 1018 10 16.09344 0 0
4:55 am 04:55 Cloudy 70 21 68 20 94 94 S 6 9 30.06 1018 10 16.09344 0 0
5:15 am 05:15 Cloudy 70 21 68 20 94 94 SE 3 6 30.06 1018 10 16.09344 0 0
5:35 am 05:35 Cloudy 70 21 68 20 94 94 Calm 30.06 1018 10 16.09344 0 0
5:55 am 05:55 Cloudy 70 21 68 20 94 94 Calm 30.06 1018 10 16.09344 0 0
6:15 am 06:15 Cloudy 70 21 68 20 94 94 SE 3 6 30.06 1018 10 16.09344 0 0
6:35 am 06:35 Cloudy with Light Rain 70 21 68 20 94 94 SSE 6 9 30.06 1018 10 16.09344 0 0
6:55 am 06:55 Cloudy 70 21 68 20 94 94 S 7 11 30.06 1018 10 16.09344 0 0
7:15 am 07:15 Cloudy with Light Rain 70 21 68 20 94 94 S 5 7 30.06 1018 10 16.09344 0 0
7:35 am 07:35 Cloudy with Light Rain 70 21 70 21 100 100 Calm 30.06 1018 10 16.09344 0 0
7:55 am 07:55 Cloudy with Light Rain 70 21 70 21 100 100 Calm 30.03 1017 10 16.09344 0.01 0.254
8:15 am 08:15 Cloudy with Light Rain 70 21 70 21 100 100 Calm 30.03 1017 10 16.09344 0 0
8:35 am 08:35 Cloudy with Light Rain 70 21 70 21 100 100 Calm 30.03 1017 10 16.09344 0.01 0.254
8:55 am 08:55 Cloudy with Light Rain 70 21 70 21 100 100 Calm 30.03 1017 10 16.09344 0.01 0.254
9:15 am 09:15 Cloudy with Light Rain 70 21 70 21 100 100 Calm 30.03 1017 10 16.09344 0 0
9:35 am 09:35 Cloudy with Rain 70 21 70 21 100 100 Calm 30.03 1017 10 16.09344 0.01 0.254
9:55 am 09:55 Cloudy with Rain 70 21 70 21 100 100 Calm 30.03 1017 7 11.265408 0.02 0.508
10:15 am 10:15 Cloudy with Rain 70 21 70 21 100 100 NNE 3 6 30 1016 4 6.437376 0.03 0.762
10:35 am 10:35 Cloudy with Rain 70 21 70 21 100 100 N 5 7 30.03 1017 5 8.04672 0.06 1.524
10:55 am 10:55 Cloudy with Rain 70 21 70 21 100 100 NNE 5 7 30.03 1017 4 6.437376 0.1 2.54
11:15 am 11:15 Cloudy with Light Rain 68 20 68 20 100 100 NE 7 11 30.03 1017 4 6.437376 0.02 0.508
11:35 am 11:35 Cloudy with Rain 68 20 68 20 100 100 NNE 7 11 30 1016 3 4.828032 0.06 1.524
11:55 am 11:55 Cloudy with Light Rain 68 20 68 20 100 100 NE 7 11 30 1016 4 6.437376 0.08 2.032
12:15 pm 12:15 Cloudy with Rain 70 21 70 21 100 100 NE 5 7 29.97 1015 5 8.04672 0.01 0.254
12:35 pm 12:35 Cloudy with Light Rain 70 21 70 21 100 100 NE 5 7 29.97 1015 4 6.437376 0.04 1.016
12:55 pm 12:55 Cloudy with Heavy Rain 70 21 70 21 100 100 NE 9 15 29.97 1015 3 4.828032 0.08 2.032
1:15 pm 13:15 Cloudy with Rain 70 21 70 21 100 100 NNE 6 9 29.97 1015 5 8.04672 0.01 0.254
1:35 pm 13:35 Cloudy with Rain 70 21 70 21 100 100 NNE 7 11 29.97 1015 3 4.828032 0.04 1.016
1:55 pm 13:55 Cloudy with Light Rain 70 21 70 21 100 100 NE 7 11 29.94 1014 7 11.265408 0.05 1.27
2:15 pm 14:15 Cloudy with Light Drizzle 70 21 70 21 100 100 NE 3 6 29.94 1014 7 11.265408 0 0
2:35 pm 14:35 Cloudy 70 21 70 21 100 100 ENE 5 7 29.94 1014 10 16.09344 0 0
2:55 pm 14:55 Cloudy 70 21 70 21 100 100 NNE 6 9 29.94 1014 7 11.265408 0 0
3:15 pm 15:15 Cloudy 72 22 72 22 100 100 NE 6 9 29.94 1014 10 16.09344 0 0
3:35 pm 15:35 Cloudy 72 22 72 22 100 100 NNE 6 9 29.94 1014 10 16.09344 0 0
3:55 pm 15:55 Cloudy with Light Rain 72 22 72 22 100 100 NNE 5 7 29.94 1014 7 11.265408 0 0
4:15 pm 16:15 Cloudy with Light Rain 72 22 72 22 100 100 N 7 11 29.94 1014 7 11.265408 0 0
4:35 pm 16:35 Cloudy 72 22 70 21 94 94 NNE 6 9 29.94 1014 10 16.09344 0 0
4:55 pm 16:55 Cloudy 72 22 70 21 94 94 NNE 6 9 29.94 1014 10 16.09344 0 0
5:15 pm 17:15 Cloudy 72 22 70 21 94 94 NNE 5 7 29.94 1014 10 16.09344 0 0
5:35 pm 17:35 Cloudy 73 23 72 22 94 94 NNE 5 7 29.94 1014 10 16.09344 0 0
5:55 pm 17:55 Cloudy 73 23 72 22 94 94 NE 5 7 29.94 1014 10 16.09344 0 0
6:15 pm 18:15 Cloudy 73 23 72 22 94 94 NNE 6 9 29.94 1014 10 16.09344 0 0
6:35 pm 18:35 Cloudy 73 23 72 22 94 94 NNE 5 7 29.94 1014 10 16.09344 0 0
6:55 pm 18:55 Cloudy 73 23 70 21 89 89 NNE 5 7 29.94 1014 10 16.09344 0 0
7:15 pm 19:15 Cloudy 73 23 72 22 94 94 NNE 6 9 29.91 1013 10 16.09344 0 0
7:35 pm 19:35 Mostly Cloudy 73 23 70 21 89 89 Calm 29.94 1014 10 16.09344 0 0
7:55 pm 19:55 Partly Cloudy 72 22 70 21 94 94 NNE 3 6 29.91 1013 10 16.09344 0 0
8:15 pm 20:15 Sunny 72 22 70 21 94 94 N 6 9 29.94 1014 10 16.09344 0 0
8:35 pm 20:35 Partly Cloudy 72 22 70 21 94 94 NNE 3 6 29.94 1014 10 16.09344 0 0
8:55 pm 20:55 Mostly Cloudy 72 22 70 21 94 94 N 5 7 29.94 1014 10 16.09344 0 0
9:15 pm 21:15 Cloudy 72 22 70 21 94 94 N 5 7 29.94 1014 10 16.09344 0 0
9:35 pm 21:35 Partly Cloudy 72 22 70 21 94 94 Calm 29.94 1014 10 16.09344 0 0
9:55 pm 21:55 Partly Cloudy 72 22 70 21 94 94 NE 5 7 29.94 1014 10 16.09344 0 0
10:15 pm 22:15 Clear 70 21 70 21 100 100 NNE 3 6 29.94 1014 10 16.09344 0 0
10:35 pm 22:35 Partly Cloudy 70 21 70 21 100 100 NNE 6 9 29.94 1014 10 16.09344 0 0
10:55 pm 22:55 Partly Cloudy 70 21 70 21 100 100 NNE 5 7 29.94 1014 10 16.09344 0 0
11:15 pm 23:15 Mostly Cloudy 70 21 70 21 100 100 NE 3 6 29.94 1014 10 16.09344 0 0
11:35 pm 23:35 Cloudy 70 21 70 21 100 100 Calm 29.94 1014 10 16.09344 0 0
11:55 pm 23:55 Cloudy 70 21 70 21 100 100 Calm 29.94 1014 10 16.09344 0 0

Powered by AerisWeather